Terminal Aerodrome Forecast
Issued by NWS Billings, MT

Home | Current Version | Previous Version | Text Only | Print | Product List | Glossary On
Versions: 1 2 3 4 5 6 7 8 9 10 11 12 13 14 15 16 17 18 19 20
000
FTUS45 KBYZ 270804 AAB
TAFBIL
TAF AMD
KBIL 270804Z 2708/2806 34011KT P6SM VCSH FEW100 BKN150
     FM271000 25007KT P6SM FEW100
     FM272200 02011KT P6SM VCTS SCT080CB BKN120=

USA.gov is the U.S. government's official web portal to all federal, state and local government web resources and services.